Погода в Такаоке

Япония     36°44′49″N   137°00′41″E
темп.,
°C
ветер,
м/с
пор.,
м/с
влажн.,
%
обл.,
%
осадки,
мм/ч
давл.,
гПа
погр.,
м
29 июля, чт
чт2900:00+22юз12968 0.0 100238
03:00+22юз1297100 0.4 100235
06:00+22юз119634 2.9 100343
09:00+27зюз25825 5.0 1002643
12:00+30зюз466577 2.0 10011290
15:00+27з47816 3.4 1001834
18:00+27зюз23822 1.3 1001150
21:00+23зюз11935 1.4 100225
30 июля, пт
пт3000:00+22юз12945 0.1 100141
03:00+22ююз11944 0.4 100128
06:00+22ююз11900 0.0 100247
09:00+29юз12650 0.0 1001700
12:00+32зсз33514 0.0 10001670
15:00+30зсз445567 0.0 10001279
18:00+27з127474 0.2 1001121
21:00+25сз11855 0.3 100221
31 июля, сб
сб3100:00+24зюз11905 0.0 100139
03:00+23юз12915 0.0 100149
06:00+23юз11875 0.0 100266
09:00+29св11675 0.0 1002693
12:00+31всв325612 0.0 10011391
15:00+30св335954 0.0 10011156
18:00+27св247561 0.1 1002298
21:00+25св248381 0.1 1002167
1 августа, вс
вс100:00+25ссв118737 0.0 100232
03:00+24юз119092 0.0 100219
06:00+24юз118679 0.0 100262
09:00+30ссз01621 0.0 1002688
12:00+32св32525 0.0 10011566
15:00+31св33625 0.3 1001938
18:00+28св34741 0.3 1001311
21:00+26св23816 0.3 100296
2 августа, пн
пн200:00+25ссв11851 0.0 100216
03:00+24юз01870 0.1 100218
06:00+25зюз11840 0.0 100350
09:00+31з116010 0.0 1004702
12:00+34св22475 0.0 10031602
15:00+33св225044 0.0 10031290
18:00+30всв23655 0.0 1005231
21:00+27св11815 0.3 100614